This demonstration page uses our WeatherBlox Daily Observations layout. Learn more.

Left ArrowRight Arrow

39.08367, -84.50855

Hourly Observations for January 17, 2021

Temp ( °F °C ) Dew Point ( °F °C ) Humidity (%) Winds ( mph kmh ) Pressure ( in mb ) Visibility ( mi km ) Precip ( " mm )
12:43 am 00:43 Cloudy 35 1.7 31 -0.6 85 85 WSW 14 22 29.81 1010 10 16.0934 0 0
12:53 am 00:53 Cloudy with Light Rain 35 1.7 31 -0.6 85 85 SW 10 17 29.81 1009 10 16.0934 0.001 0.001
1:53 am 01:53 Cloudy 35 1.7 31 -0.6 85 85 WSW 9 15 29.8 1009 10 16.0934 0.001 0.001
2:53 am 02:53 Cloudy 35 1.7 31 -0.6 85 85 WSW 12 19 29.82 1010 10 16.0934 0 0
3:22 am 03:22 Cloudy 35 1.7 31 -0.6 85 85 SW 9 15 29.84 1011 10 16.0934 0 0
3:53 am 03:53 Cloudy 35 1.7 31 -0.6 85 85 WSW 9 15 29.82 1010 10 16.0934 0 0
4:53 am 04:53 Cloudy 35 1.7 30 -1.1 82 82 SW 7 11 29.81 1009 10 16.0934 0 0
5:53 am 05:53 Cloudy 35 1.7 30 -1.1 82 82 SW 8 13 29.81 1009 10 16.0934 0 0
6:53 am 06:53 Cloudy 35 1.7 30 -1.1 82 82 SW 9 15 29.81 1010 10 16.0934 0 0
7:53 am 07:53 Cloudy 35 1.7 30 -1.1 82 82 SW 7 11 29.82 1010 10 16.0934 0 0
8:53 am 08:53 Cloudy with Light Rain 35 1.7 31 -0.6 85 85 SW 8 13 29.83 1010 8 12.87472 0.001 0.001
9:53 am 09:53 Cloudy with Light Snow 35 1.7 32 0 89 89 SSW 7 11 29.83 1010 9 14.48406 0.001 0.001
10:53 am 10:53 Cloudy 36 2.2 32 0 86 86 SSW 9 15 29.82 1010 9 14.48406 0.001 0.001
11:53 am 11:53 Cloudy with Light Snow 37 2.8 32 0 82 82 SSW 9 15 29.79 1009 6 9.65604 0.001 0.001
12:53 pm 12:53 Cloudy with Light Rain 37 2.8 33 0.6 86 86 SSW 9 15 29.77 1008 8 12.87472 0.01 0.254
1:53 pm 13:53 Cloudy with Light Rain 37 2.8 33 0.6 86 86 SW 7 11 29.75 1008 8 12.87472 0.01 0.254
2:10 pm 14:10 Cloudy with Light Rain 36 2.2 33 0.6 89 89 SSW 12 19 29.76 1008 6 9.65604 0.001 0.001
2:53 pm 14:53 Cloudy 37 2.8 33 0.6 86 86 SSW 13 20 29.75 1007 10 16.0934 0.001 0.001
3:53 pm 15:53 Cloudy 37 2.8 31 -0.6 79 79 WSW 12 19 29.76 1008 8 12.87472 0.001 0.001
4:53 pm 16:53 Cloudy with Light Rain 36 2.2 31 -0.6 82 82 WSW 9 15 29.78 1009 10 16.0934 0.01 0.254
5:53 pm 17:53 Cloudy 34 1.1 30 -1.1 85 85 SSW 7 11 29.8 1009 10 16.0934 0.001 0.001
6:53 pm 18:53 Cloudy 34 1.1 30 -1.1 85 85 SW 10 17 29.8 1009 10 16.0934 0 0
7:53 pm 19:53 Cloudy 34 1.1 29 -1.7 82 82 WSW 10 17 29.82 1010 10 16.0934 0.001 0.001
8:53 pm 20:53 Cloudy 33 0.6 28 -2.2 82 82 W 10 17 29.82 1010 9 14.48406 0.001 0.001
9:53 pm 21:53 Cloudy with Light Snow 33 0.6 29 -1.7 85 85 WSW 9 15 29.83 1010 5 8.0467 0.001 0.001
10:01 pm 22:01 Cloudy with Light Snow 32 0 29 -1.7 88 88 W 9 15 29.85 1011 1.75 2.816345 0.001 0.001
10:06 pm 22:06 Cloudy with Light Snow 32 0 29 -1.7 88 88 W 9 15 29.85 1011 3 4.82802 0.001 0.001
10:10 pm 22:10 Cloudy with Light Snow 33 0.6 29 -1.7 85 85 W 8 13 29.85 1011 2 3.21868 0.001 0.001
10:27 pm 22:27 Cloudy with Light Snow 33 0.6 28 -2.2 82 82 WSW 8 13 29.85 1011 2 3.21868 0.01 0.254
10:53 pm 22:53 Cloudy with Light Snow 32 0 28 -2.2 85 85 WSW 10 17 29.83 1010 2 3.21868 0.01 0.254
11:00 pm 23:00 Cloudy with Light Snow 32 0 28 -2.2 85 85 WSW 9 15 29.85 1011 8 12.87472 0.001 0.001
11:53 pm 23:53 Cloudy with Light Snow 32 0 28 -2.2 85 85 WSW 9 15 29.83 1010 10 16.0934 0.001 0.001

Powered by AerisWeather